Location: Newark
(49.3000°N, 9.4667°E)
Time: 17:11:59
(UTC+00:00)

Tiros 1 - Pass Details

Date: 25 May 2019
Orbit: 631 x 664 km, 48.4° (Epoch: 17 June)

Event Time Altitude Azimuth Distance (km) Brightness Sun altitude
Rises 16:10:41 0° 276° (W) 2,963 11.9 26.8°
Reaches altitude 10° 16:14:59 10° 239° (WSW) 2,057 10.8 26.1°
Maximum altitude 16:16:03 11° 226° (SW) 2,011 10.4 25.9°
Drops below altitude 10° 16:17:06 10° 213° (SSW) 2,058 10.2 25.7°
Sets 16:21:26 0° 176° (S) 2,972 10.5 25.0°
